CZ-3B DEB, 42474

Orbit data source: Space-Track

CZ-3B DEB, 42474 is space debris in HEO originally from a launch on Mon, 19 Dec 2011 UTC launched from the Xichang Space Center, China (XSC). Debris objects in space refer to the collection of defunct objects orbiting the Earth. Examples of debris include non-operational satellites, rocket bodies, and fragments generated from explosions, collisions, or faulty payload assembly.

Loading next visibility...
Identifier
42474, 2011-077AP
Orbit
HEO
Country
Flag of CNCN / PRC
Related business
Manufacturer
CALT
Mission
Spacecraft
Bus & Motor
Unknown
Mass
Unknown
Launch date (UTC)
2011-12-19 (14 years ago)
Launch vehicle
Unknown
Launch site
Xichang Space Center, China (XSC)
Object type
Payload
Rocket body
Debris
Shape & HBR
Unknown
Radar Cross Section
Medium (>0.1 m² and <1 m²)

Expand to show TLE details & history
Last TLE update: 1 day ago

TLE from 1 day ago
0 CZ-3B DEB
1 42474U 11077AP  25258.24171780 -.00000106  00000-0  00000-0 0  9997
2 42474  21.8782 136.6213 7193182 347.3984   1.6319  1.66959319 64258
Epoch: 2025-09-15T05:48Z
TLE epoch observation values (Epoch: 2025-09-15T05:48:04.417Z)
Latitude
0.00039°
Longitude
55.15319°
Altitude
2,134.847 km
Speed
8.964 km/s
True Right ascension
09h 06m 28s
True Declination
0° 00' 01"
Sunlit
Object was in daylight at epoch
Visualization orbit readout
Latitude
Unknown
Longitude
Unknown
Altitude
Unknown
Speed
Unknown
Apparent Right ascension
Unknown
Apparent Declination
Unknown
Sunlit
N/A
Visualization observer readout
Local Sidereal Time
23:04:15
Azimuth
Unknown
Elevation
Unknown
Doppler factor
Unknown
Orbital elements
Apogee altitude
45,231.967 km
Perigee altitude
2,047.306 km
Semi-major axis
30,017.773 km
Eccentricity
0.71932
Inclination
21.8782°
RAAN
136.6213°
Arg. of periapsis
347.3984°
True anomaly
14.26527°
Mean anomaly
1.6319°
Eccentric anomaly
5.78883°
Mean motion
0.41733 °/min
Orbital period
862.63 mins
BSTAR
0
Loading maneuver chart data...
Computing Atmospheric mass density...
Loading historical data...
Loading historical data...
Loading historical data...
Loading historical data...
Loading historical data...
Loading historical data...
Loading historical data...

Documentation

Showing up to 5 results
|